Weather History for Fortuna, CA

Change the Weather History Date:

Friday, March 7, 2014

  Actual Average (KEKA) Record (KEKA)
Temperature  
Mean Temperature 50 °F 50 °F  
Max Temperature 59 °F 57 °F 77 °F (1905)
Min Temperature 42 °F 42 °F 30 °F (2012)
Degree Days  
Heating Degree Days 14 16  
Month to date heating degree days 112  
Since 1 July heating degree days 3034  
Cooling Degree Days 0 0  
Month to date cooling degree days 0  
Year to date cooling degree days 0  
Moisture  
Dew Point 46 °F    
Average Humidity 89    
Maximum Humidity 100    
Minimum Humidity 63    
Precipitation  
Precipitation 0.00 in 0.17 in 3.59 in (1904)
Month to date precipitation 1.33  
Year to date precipitation 13.46  
Since 1 July precipitation 30.51  
Snow  
Snow 0.00 in 0.00 in - ()
Month to date snowfall 0.0  
Since 1 July snowfall 0.2  
Snow Depth -    
Sea Level Pressure  
Sea Level Pressure 30.22 in    
Wind  
Wind Speed 7 mph (SSE)    
Max Wind Speed 14 mph    
Max Gust Speed 17 mph    
Visibility 8 miles    
Events      
T = Trace of Precipitation, MM = Missing Value Source: NWS Daily Summary

Daily Weather History Graph

Daily Weather History Graph

Search for Another Location

Airport:

Trip Planner

Search our weather history database for the weather conditions in past years. The results will help you decide how hot, cold, wet, or windy it might be!

Date:

Astronomy

Mar. 07, 2014 Rise Set
Actual Time 6:40 AM PST 6:14 PM PST
Civil Twilight 6:13 AM PST 6:42 PM PST
Nautical Twilight 5:42 AM PST 7:13 PM PST
Astronomical Twilight 5:10 AM PST 7:45 PM PST
Moon 10:36 AM PST (3/7) 12:26 AM PST (3/7)
Length of Visible Light 12h 28m
Length of Day
11h 33m
Waxing Crescent, 43% of the Moon is Illuminated
Mar 7
Waxing Crescent
Mar 8
First Quarter
Mar 16
Full
Mar 23
Last Quarter
Mar 30
New

Hourly Weather History & Observations

Time (PST) Temp. Windchill Dew Point Humidity Pressure Visibility Wind Dir Wind Speed Gust Speed Precip Events Conditions
12:10 AM 46.4 °F 44.3 °F 46.4 °F 100% 30.26 in 0.2 mi SSE 4.6 mph - N/A   Overcast
12:30 AM 46.4 °F 44.3 °F 46.4 °F 100% 30.27 in 0.2 mi SSE 4.6 mph - N/A   Overcast
12:50 AM 46.4 °F 45.2 °F 46.4 °F 100% 30.27 in 0.2 mi SE 3.5 mph - N/A   Overcast
1:10 AM 44.6 °F 42.2 °F 44.6 °F 100% 30.28 in 0.2 mi SE 4.6 mph - N/A   Overcast
1:30 AM 46.4 °F 43.5 °F 46.4 °F 100% 30.28 in 0.2 mi SSE 5.8 mph - N/A   Overcast
1:50 AM 46.4 °F 43.5 °F 46.4 °F 100% 30.28 in 1.5 mi SE 5.8 mph - N/A   Overcast
2:10 AM 46.4 °F 43.5 °F 46.4 °F 100% 30.27 in 0.2 mi SE 5.8 mph - N/A   Overcast
2:30 AM 46.4 °F 43.5 °F 46.4 °F 100% 30.26 in 0.2 mi SE 5.8 mph - N/A   Overcast
2:50 AM 46.4 °F 42.9 °F 46.4 °F 100% 30.26 in 0.2 mi SSE 6.9 mph - N/A   Overcast
3:10 AM 46.4 °F 42.9 °F 46.4 °F 100% 30.26 in 1.8 mi SE 6.9 mph - N/A   Overcast
3:30 AM 44.6 °F 39.2 °F 44.6 °F 100% 30.25 in 10.0 mi ESE 10.4 mph - N/A   Scattered Clouds
3:50 AM 44.6 °F 39.7 °F 44.6 °F 100% 30.25 in 10.0 mi East 9.2 mph - N/A   Scattered Clouds
4:10 AM 46.4 °F 41.5 °F 46.4 °F 100% 30.24 in 10.0 mi ESE 10.4 mph - N/A   Mostly Cloudy
4:30 AM 44.6 °F 39.2 °F 44.6 °F 100% 30.24 in 10.0 mi ESE 10.4 mph - N/A   Partly Cloudy
4:50 AM 44.6 °F 39.7 °F 44.6 °F 100% 30.24 in 10.0 mi ESE 9.2 mph - N/A   Clear
5:10 AM 44.6 °F 39.2 °F 44.6 °F 100% 30.23 in 10.0 mi ESE 10.4 mph - N/A   Clear
5:30 AM 44.6 °F 38.8 °F 44.6 °F 100% 30.23 in 10.0 mi ESE 11.5 mph - N/A   Clear
5:50 AM 44.6 °F 40.2 °F 44.6 °F 100% 30.23 in 10.0 mi SE 8.1 mph - N/A   Clear
6:10 AM 44.6 °F 40.2 °F 42.8 °F 93% 30.23 in 10.0 mi ESE 8.1 mph - N/A   Clear
6:30 AM 44.6 °F 40.2 °F 44.6 °F 100% 30.23 in 10.0 mi SE 8.1 mph - N/A   Clear
6:50 AM 42.8 °F 38.0 °F 42.8 °F 100% 30.23 in 10.0 mi SE 8.1 mph - N/A   Clear
7:10 AM 42.8 °F 38.0 °F 42.8 °F 100% 30.23 in 10.0 mi SE 8.1 mph - N/A   Clear
7:30 AM 44.6 °F 39.7 °F 42.8 °F 93% 30.24 in 10.0 mi SSE 9.2 mph - N/A   Clear
7:50 AM 44.6 °F 40.2 °F 44.6 °F 100% 30.24 in 10.0 mi SE 8.1 mph - N/A   Clear
8:10 AM 46.4 °F 41.9 °F 44.6 °F 93% 30.25 in 10.0 mi ESE 9.2 mph - N/A   Clear
8:30 AM 48.2 °F - 46.4 °F 93% 30.25 in 10.0 mi ESE 8.1 mph - N/A   Clear
8:50 AM 48.2 °F - 46.4 °F 93% 30.25 in 10.0 mi SE 8.1 mph - N/A   Clear
9:10 AM 50.0 °F - 46.4 °F 87% 30.25 in 10.0 mi SE 6.9 mph - N/A   Clear
9:30 AM 50.0 °F - 46.4 °F 87% 30.25 in 10.0 mi SSE 5.8 mph - N/A   Clear
9:50 AM 50.0 °F - 46.4 °F 87% 30.24 in 10.0 mi Calm Calm - N/A   Clear
10:10 AM 53.6 °F - 46.4 °F 77% 30.24 in 10.0 mi Calm Calm - N/A   Clear
10:30 AM 55.4 °F - 46.4 °F 72% 30.24 in 10.0 mi NW 3.5 mph - N/A   Clear
10:50 AM 55.4 °F - 46.4 °F 72% 30.24 in 10.0 mi NW 5.8 mph - N/A   Clear
11:10 AM 55.4 °F - 48.2 °F 77% 30.24 in 10.0 mi WNW 6.9 mph - N/A   Clear
11:30 AM 55.4 °F - 48.2 °F 77% 30.24 in 10.0 mi WNW 9.2 mph - N/A   Clear
11:50 AM 57.2 °F - 48.2 °F 72% 30.23 in 10.0 mi WNW 11.5 mph - N/A   Clear
12:10 PM 55.4 °F - 48.2 °F 77% 30.23 in 10.0 mi WNW 11.5 mph - N/A   Clear
12:30 PM 57.2 °F - 50.0 °F 77% 30.22 in 10.0 mi NW 12.7 mph - N/A   Clear
12:50 PM 55.4 °F - 50.0 °F 82% 30.22 in 10.0 mi WNW 13.8 mph - N/A   Clear
1:10 PM 57.2 °F - 50.0 °F 77% 30.21 in 10.0 mi WNW 12.7 mph - N/A   Clear
1:30 PM 57.2 °F - 50.0 °F 77% 30.20 in 10.0 mi WNW 11.5 mph - N/A   Clear
1:50 PM 57.2 °F - 50.0 °F 77% 30.19 in 10.0 mi WNW 10.4 mph - N/A   Clear
2:10 PM 57.2 °F - 50.0 °F 77% 30.19 in 10.0 mi WNW 10.4 mph - N/A   Clear
2:30 PM 57.2 °F - 48.2 °F 72% 30.18 in 10.0 mi WNW 11.5 mph - N/A   Clear
2:50 PM 59.0 °F - 48.2 °F 67% 30.18 in 10.0 mi WNW 10.4 mph - N/A   Clear
3:10 PM 59.0 °F - 46.4 °F 63% 30.18 in 10.0 mi WNW 10.4 mph - N/A   Clear
3:30 PM 59.0 °F - 46.4 °F 63% 30.18 in 10.0 mi WNW 12.7 mph - N/A   Clear
3:50 PM 57.2 °F - 48.2 °F 72% 30.19 in 10.0 mi WNW 12.7 mph 17.3 mph N/A   Clear
4:10 PM 55.4 °F - 48.2 °F 77% 30.19 in 10.0 mi WNW 12.7 mph - N/A   Clear
4:30 PM 55.4 °F - 48.2 °F 77% 30.20 in 10.0 mi WNW 11.5 mph - N/A   Clear
4:50 PM 53.6 °F - 48.2 °F 82% 30.19 in 10.0 mi WNW 11.5 mph - N/A   Clear
5:10 PM 53.6 °F - 48.2 °F 82% 30.18 in 10.0 mi WNW 9.2 mph - N/A   Clear
5:30 PM 51.8 °F - 46.4 °F 82% 30.18 in 10.0 mi West 9.2 mph - N/A   Clear
5:50 PM 50.0 °F - 46.4 °F 87% 30.18 in 10.0 mi West 8.1 mph - N/A   Clear
6:10 PM 50.0 °F - 46.4 °F 87% 30.18 in 10.0 mi West 6.9 mph - N/A   Clear
6:30 PM 50.0 °F - 46.4 °F 87% 30.18 in 10.0 mi WSW 4.6 mph - N/A   Clear
6:50 PM 50.0 °F - 46.4 °F 87% 30.18 in 10.0 mi Calm Calm - N/A   Clear
7:10 PM 48.2 °F - 44.6 °F 87% 30.18 in 10.0 mi East 3.5 mph - N/A   Clear
7:30 PM 48.2 °F - 46.4 °F 93% 30.18 in 10.0 mi Calm Calm - N/A   Clear
7:50 PM 48.2 °F - 46.4 °F 93% 30.18 in 10.0 mi Calm Calm - N/A   Clear
8:10 PM 48.2 °F - 46.4 °F 93% 30.19 in 10.0 mi Calm Calm - N/A   Clear
8:30 PM 46.4 °F - 44.6 °F 93% 30.19 in 10.0 mi Calm Calm - N/A   Clear
8:50 PM 46.4 °F - 46.4 °F 100% 30.20 in 10.0 mi Calm Calm - N/A   Mostly Cloudy
9:10 PM 48.2 °F - 46.4 °F 93% 30.20 in 7.0 mi Calm Calm - N/A   Overcast
9:30 PM 46.4 °F 44.3 °F 44.6 °F 93% 30.20 in 10.0 mi SE 4.6 mph - N/A   Overcast
9:50 PM 46.4 °F 45.2 °F 44.6 °F 93% 30.21 in 9.0 mi South 3.5 mph - N/A   Overcast
10:10 PM 46.4 °F 43.5 °F 46.4 °F 100% 30.20 in 5.0 mi SE 5.8 mph - N/A   Overcast
10:30 PM 46.4 °F 42.4 °F 44.6 °F 93% 30.19 in 7.0 mi ESE 8.1 mph - N/A   Mostly Cloudy
10:50 PM 46.4 °F 41.9 °F 44.6 °F 93% 30.18 in 10.0 mi ESE 9.2 mph - N/A   Partly Cloudy
11:10 PM 46.4 °F 42.4 °F 46.4 °F 100% 30.16 in 10.0 mi ESE 8.1 mph - N/A   Clear
11:30 PM 46.4 °F 41.9 °F 44.6 °F 93% 30.16 in 10.0 mi ESE 9.2 mph - N/A   Clear
11:50 PM 44.6 °F 39.2 °F 44.6 °F 100% 30.15 in 10.0 mi SE 10.4 mph - N/A   Clear